Location: Bühlhof
(48.7849°N, 8.6361°E)
Time: 22:36:39
(UTC+00:00)

Okean 3 - Pass Details

Date: 19 January 2026
Orbit: 541 x 564 km, 82.5° (Epoch: 7 February)

Event Time Altitude Azimuth Distance (km) Brightness Sun altitude
Rises 17:40:40 0° 192° (SSW) 2,731 7.2 -15.8°
Reaches altitude 10° 17:42:50 10° 193° (SSW) 1,837 6.3 -16.1°
Maximum altitude 17:46:53 77° 280° (W) 575 3.4 -16.8°
Drops below altitude 10° 17:50:56 10° 7° (N) 1,839 5.8 -17.4°
Enters shadow 17:52:04 - 8° (N) 2,308 6.3 -17.6°
